Weather History for KSDB - February, 2013

Change the Weather History Date:

Monday, February 25, 2013

  Actual Average Record
Temperature  
Mean Temperature 50 °F 45 °F  
Max Temperature 61 °F 51 °F 69 °F (1989)
Min Temperature 39 °F 39 °F 23 °F (1971)
Degree Days  
Heating Degree Days 15 20  
Month to date heating degree days 477 535  
Since 1 July heating degree days 2320 2700  
Cooling Degree Days 0 0  
Month to date cooling degree days 0 0  
Year to date cooling degree days 0 0  
Moisture  
Dew Point 10 °F    
Average Humidity 29    
Maximum Humidity 43    
Minimum Humidity 14    
Precipitation  
Precipitation 0.00 in 0.14 in 1.82 in (2004)
Month to date precipitation 0.51 2.86  
Year to date precipitation 1.83 5.27  
Since 1 July precipitation 3.20  
Sea Level Pressure  
Sea Level Pressure 30.12 in    
Wind  
Wind Speed 13 mph (North)    
Max Wind Speed 39 mph    
Max Gust Speed 47 mph    
Visibility 10 miles    
Events      
T = Trace of Precipitation, MM = Missing Value Source: NWS Daily Summary

Daily Weather History Graph

Daily Weather History Graph

Search for Another Location

Airport or City:

Trip Planner

Search our weather history database for the weather conditions in past years. The results will help you decide how hot, cold, wet, or windy it might be!

Date:

Astronomy

Feb. 25, 2013 Rise Set
Actual Time 6:28 AM PST 5:47 PM PST
Civil Twilight 6:03 AM PST 6:12 PM PST
Nautical Twilight 5:33 AM PST 6:42 PM PST
Astronomical Twilight 5:04 AM PST 7:11 PM PST
Moon 6:03 PM PST (2/25) 6:03 AM PST (2/25)
Length of Visible Light 12h 09m
Length of Day
11h 18m
Full, 100% of the Moon is Illuminated
Feb 25
Full
Feb 25
Full
Mar 4
Last Quarter
Mar 11
New
Mar 19
First Quarter

Hourly Weather History & Observations

Time (PST) Temp. Windchill Dew Point Humidity Pressure Visibility Wind Dir Wind Speed Gust Speed Precip Events Conditions
12:48 AM 41.0 °F 39.0 °F -4.0 °F 15% 30.19 in 10.0 mi ESE 3.5 mph - N/A   Clear
1:48 AM 42.1 °F - -4.0 °F 14% 30.19 in 10.0 mi Calm Calm - N/A   Clear
2:48 AM 41.0 °F - -4.0 °F 15% 30.17 in 10.0 mi Calm Calm - N/A   Clear
3:48 AM 41.0 °F 37.1 °F -2.0 °F 16% 30.16 in 10.0 mi ENE 5.8 mph - N/A   Clear
4:48 AM 39.9 °F 35.8 °F -2.9 °F 16% 30.17 in 10.0 mi NNE 5.8 mph - N/A   Clear
5:48 AM 41.0 °F 38.0 °F -2.9 °F 16% 30.17 in 10.0 mi NNE 4.6 mph - N/A   Clear
6:48 AM 41.0 °F 38.0 °F -2.0 °F 16% 30.17 in 10.0 mi NNE 4.6 mph - N/A   Clear
7:48 AM 46.9 °F - 1.0 °F 15% 30.17 in 10.0 mi NE 3.5 mph - N/A   Clear
8:48 AM 48.9 °F - 8.1 °F 19% 30.17 in 10.0 mi Variable 3.5 mph - N/A   Clear
9:48 AM 52.0 °F - 9.0 °F 18% 30.15 in 10.0 mi Variable 4.6 mph - N/A   Clear
10:48 AM 55.0 °F - 9.0 °F 16% 30.14 in 10.0 mi Variable 4.6 mph - N/A   Clear
11:48 AM 57.0 °F - 10.0 °F 15% 30.12 in 10.0 mi Calm Calm - N/A   Clear
12:48 PM 61.0 °F - 14.0 °F 16% 30.09 in 10.0 mi Variable 3.5 mph - N/A   Clear
1:48 PM 57.0 °F - 21.0 °F 25% 30.07 in 10.0 mi North 8.1 mph 16.1 mph N/A   Clear
2:48 PM 55.9 °F - 19.0 °F 24% 30.07 in 10.0 mi NNW 16.1 mph 25.3 mph N/A   Clear
3:48 PM 55.9 °F - 15.1 °F 20% 30.07 in 10.0 mi NW 20.7 mph 27.6 mph N/A   Clear
4:48 PM 53.1 °F - 16.0 °F 23% 30.06 in 10.0 mi NW 19.6 mph 25.3 mph N/A   Clear
5:48 PM 48.9 °F - 16.0 °F 27% 30.07 in 10.0 mi NW 20.7 mph 33.4 mph N/A   Clear
6:48 PM 44.1 °F 35.0 °F 23.0 °F 43% 30.09 in 10.0 mi NNW 24.2 mph 36.8 mph N/A   Clear
7:48 PM 45.0 °F 36.0 °F 19.0 °F 36% 30.06 in 10.0 mi NW 25.3 mph 33.4 mph N/A   Clear
8:48 PM 44.1 °F 35.7 °F 18.0 °F 35% 30.06 in 10.0 mi NNW 20.7 mph 31.1 mph N/A   Clear
9:48 PM 44.1 °F 33.0 °F 19.9 °F 38% 30.06 in 10.0 mi NW 36.8 mph 41.4 mph N/A   Clear
10:48 PM 42.1 °F 31.0 °F 21.9 °F 45% 30.04 in 10.0 mi NNW 32.2 mph 40.3 mph N/A   Clear
11:48 PM 42.1 °F 31.0 °F 21.9 °F 45% 30.03 in 10.0 mi NNW 32.2 mph 43.7 mph N/A   Clear